#timestamp,LO_Frequency,Hit,StdDev 
1620471615.5,286046998.1,N
1620471635.3,286046998.9,N
1620471655.2,286046998.2,N
1620471675.9,286046997.0,N
1620471695.7,286046997.7,N
1620471715.6,286046996.8,N
1620471735.4,286046997.5,N
1620471755.2,286047001.0,N
1620471775.1,286047000.6,N
1620471776.0,286047000.6,N
1620471795.8,286047002.2,N
1620471815.6,286047000.0,N
1620471835.5,286047002.0,N
1620471855.3,286047004.0,N
1620471875.2,286047005.6,N
1620471895.9,286047005.0,N
1620471915.7,286047006.0,N
1620471935.6,286047006.0,N
1620471955.4,286047002.4,N
1620471975.2,286046996.5,N
1620471995.1,286046996.9,N
1620471996.0,286046996.9,N
1620472015.8,286046998.5,N
1620472035.7,286047000.1,N
1620472055.5,286047001.7,N
1620472075.3,286047002.2,N
1620472095.2,286047001.5,N
1620472115.0,286047002.1,N
1620472115.9,286047002.1,N
1620472135.8,286047003.3,N
1620472155.6,286047005.4,N
1620472205.5,286047005.6,E
1620472215.4,286047000.2,N
1620472235.2,286046999.3,P
1620472255.1,286046998.7,N
1620472256.0,286046998.7,N
1620472275.8,286046998.1,Y
1620472295.6,286047001.0,P
1620472315.5,286046998.2,N
1620472335.3,286046994.9,P
1620472355.1,286046996.9,N
1620472375.9,286046999.2,N
1620472395.7,286047000.0,N
1620472415.6,286047002.7,N
1620472435.4,286047002.8,N
1620472455.2,286047005.5,N
1620472475.1,286047003.1,N
1620472476.0,286047003.1,N
1620472495.8,286047004.8,N
1620472515.6,286047005.1,N
1620472535.5,286047005.7,N
1620472555.3,286047001.8,N
1620472575.2,286047002.7,N
1620472595.9,286047002.4,N
1620472615.7,286047004.1,N
1620472635.6,286047002.8,N
1620472655.4,286047002.8,N
1620472675.2,286047000.2,N
1620472695.1,286047004.4,N
1620472696.0,286047004.4,N
1620472715.8,286047001.5,N
1620472735.7,286047002.5,N
1620472755.5,286047001.3,N
1620472775.3,286047003.0,N
1620472795.2,286047005.3,N
1620472815.9,286047003.0,N
1620472835.7,286047001.8,N
1620472855.6,286047003.7,N
1620472875.4,286047005.7,N
1620472895.3,286047002.6,N
1620472915.1,286047002.3,N
1620472916.0,286047002.3,N
1620472935.8,286047002.3,N
1620472955.7,286047002.7,N
1620472975.5,286047002.5,N
1620472995.3,286047002.5,N
1620473015.2,286047001.6,N
1620473035.0,286047003.3,N
1620473035.9,286047003.3,N
1620473055.8,286047003.1,N
1620473075.6,286047004.1,Y
1620473095.4,286046998.4,P
1620473115.3,286046998.1,N
1620473135.1,286047000.5,N
1620473155.8,286047000.8,N
1620473175.7,286047000.3,N
1620473195.5,286047000.3,N
1620473215.4,286046999.4,N
1620473235.2,286047001.0,N
1620473255.0,286047000.0,N
1620473255.9,286047000.0,N
1620473275.8,286047000.2,N
1620473295.6,286046998.1,N
1620473315.4,286047000.7,N
1620473335.3,286047000.1,N
1620473355.1,286047000.2,N
1620473375.9,286046998.4,N
1620473395.7,286047002.8,N
1620473415.5,286047002.5,N
1620473435.4,286047004.1,N
1620473455.2,286047005.3,Y
1620473475.0,286047004.5,P
1620473475.9,286047004.5,N
1620473495.8,286047007.6,P
1620473515.6,286047002.9,N
1620473535.5,286047004.1,N
1620473555.3,286047004.1,N
1620473575.1,286047001.4,N
1620473595.9,286047002.8,N
1620473615.7,286047002.4,N
1620473635.5,286046998.6,N
1620473655.4,286047002.8,N
1620473675.2,286047001.6,N
1620473695.1,286047000.7,N
1620473696.0,286047000.7,N
1620473715.8,286046999.2,N
1620473735.6,286046998.2,N
1620473755.5,286047002.7,N
1620473775.3,286047002.2,N
1620473795.1,286047002.8,N
1620473815.9,286047002.5,N
1620473835.7,286047002.4,N
1620473855.6,286047002.0,N
1620473875.4,286047004.0,N
1620473895.2,286047003.5,N
1620473915.1,286047005.7,N
1620473916.0,286047005.7,N
1620473935.8,286047006.0,N
1620473955.6,286047002.8,N
1620473975.5,286046998.9,N
1620473995.3,286046999.4,N
1620474015.2,286047000.9,N
1620474035.9,286046999.8,N
1620474055.7,286047002.5,N
1620474075.6,286047000.9,N
1620474095.4,286047002.5,N
1620474115.2,286047001.9,N
1620474135.1,286047002.8,N
1620474136.0,286047002.8,N
1620474155.8,286046999.8,N
1620474175.7,286047000.5,N
1620474195.5,286047002.6,N
1620474215.3,286047004.0,N
1620474235.2,286047004.0,N
1620474255.0,286047002.8,N
1620474255.9,286047002.8,N
1620474275.8,286046999.8,N
1620474295.6,286047002.1,N
1620474315.4,286047001.2,N
1620474335.3,286047001.5,N
1620474355.1,286046999.9,N
1620474375.8,286046998.5,N
1620474395.7,286047001.0,N
1620474415.5,286047001.4,N
1620474435.4,286046999.8,N
1620474455.2,286047001.9,N
1620474475.0,286047003.7,N
1620474475.9,286047003.7,N
1620474495.8,286047006.9,Y
1620474515.6,286047003.5,P
1620474535.4,286047005.7,P
1620474555.3,286047006.7,P
1620474575.1,286047006.0,N
1620474595.9,286047003.5,N
1620474615.7,286047003.9,N
1620474635.5,286047001.9,N
1620474655.4,286047002.8,N
1620474675.2,286047003.6,N
1620474695.0,286047003.0,N
1620474695.9,286047003.0,N
1620474715.8,286047003.2,N
1620474735.6,286047002.3,N
1620474755.5,286047002.5,N
1620474775.3,286047003.0,N
1620474795.1,286047001.7,N
1620474815.9,286047002.0,N
1620474835.7,286047001.9,N
1620474855.6,286046999.7,N
1620474875.4,286046999.7,N
1620474895.2,286047002.4,N
1620474915.1,286047001.2,N
1620474916.0,286047001.2,N
1620474935.8,286046999.8,N
1620474955.6,286047000.3,N
1620474975.5,286047000.0,N
1620474995.3,286047001.1,N
1620475015.2,286047001.2,N
1620475035.9,286047001.0,N
1620475055.7,286046998.3,N
1620475075.6,286046999.3,N
1620475095.4,286047001.1,N
1620475115.2,286047001.0,N
1620475135.1,286047001.2,N
1620475136.0,286047001.2,N
1620475155.8,286047000.7,N
1620475175.7,286047001.2,N
1620475195.5,286046999.8,N
